User: anonymous   Login
Location: Unspecified
(0.0000°N, 0.0000°E)
Time: 06:10:34
(UTC+00:00)
Language:

Kosmos-2100 - Orbit

View from above orbital plane
View from above orbital plane
View from above satellite
View from above satellite

Ground track
Ground track

The orbit data is extracted from the following two-line orbital elements,

1 20804U 90083A   17296.67060825  .00000047  00000-0  32993-4 0  9994
2 20804  82.9408 346.2429 0038235  80.3596  70.4084 13.74307268359639
Epoch (UTC): 23 October 2017 16:05:40
Eccentricity: 0.0038235
inclination: 82.9408°
perigee height: 956 km
apogee height: 1012 km
right ascension of ascending node: 346.2429°
argument of perigee: 80.3596°
revolutions per day: 13.74307268
mean anomaly at epoch: 70.4084°
orbit number at epoch: 35963

The dashed part of the orbit path shows where the satellite is in the earth's shadow,  

DLR